Preview of NWS' New Version of Forecast
This preview is not operational and should not be used for support decisions.

Regional Weather Roundup (RWR)

Issued by National Weather Service (NWS)

                            
000
ASUS43 KMKX 250659
RWRWI 

WISCONSIN REGIONAL WEATHER ROUNDUP
NATIONAL WEATHER SERVICE MILWAUKEE/SULLIVAN WI
200 AM CDT MON MAR 25 2019

NOTE: "FAIR" INDICATES FEW OR NO CLOUDS BELOW 12,000 FEET WITH NO
SIGNIFICANT WEATHER AND/OR OBSTRUCTIONS TO VISIBILITY.

WIZ001-002-006>008-014>016-023>028-250800-
NORTHWEST WISCONSIN
  
CITY           SKY/WX    TMP DP  RH WIND       PRES   REMARKS
SUPERIOR ARPT  FAIR      18  17  95 CALM      30.41R                  
ASHLAND        FAIR      13  11  92 CALM      30.39S                  
HAYWARD        FAIR      16  13  88 CALM      30.35R                  
SIREN          FAIR      22  14  72 NE3       30.36S                  
CUMBERLAND     FAIR      25  14  63 NE9       30.31S WCI  15          
RICE LAKE      MOCLDY    26  18  72 NE7       30.33S WCI  18          
CHETEK         CLOUDY    28  13  55 NE6       30.32R WCI  21          
LADYSMITH      FAIR      26   2  36 NE7       30.33R WCI  18          
EAU CLAIRE     NOT AVBL                                               
MENOMONIE      CLOUDY    28  17  66 N8        30.31R WCI  19          
NEW RICHMOND   CLOUDY    28  18  66 NE8       30.31S WCI  20          
OSCEOLA        CLOUDY    29  19  66 N8        30.36R WCI  21          
$$
 
WIZ003>005-009-010-017-018-250800-
NORTH CENTRAL WISCONSIN
  
CITY           SKY/WX    TMP DP  RH WIND       PRES   REMARKS
MANITOWISH WTR NOT AVBL                                               
ARBOR VITAE    FAIR      14   3  62 CALM      30.31S                  
WOODRUFF       FAIR      14   3  62 CALM      30.31S                  
RHINELANDER    FAIR      20   1  43 CALM      30.30S                  
EAGLE RIVER    FAIR      12   2  64 CALM      30.30S                  
LAND O LAKES   FAIR       7   3  85 CALM      30.32S                  
PHILLIPS       FAIR      19  -1  42 NE5       30.31S WCI  12          
TOMAHAWK       FAIR      20   2  46 NE3       30.31R                  
MEDFORD        CLOUDY    25  11  55 NE8       30.28R WCI  16          
MERRILL        FAIR      25   9  50 NE6       30.31R WCI  18          
$$
 
WIZ029-030-035-036-043>047-250800-
CENTRAL WISCONSIN
  
CITY           SKY/WX    TMP DP  RH WIND       PRES   REMARKS
WAUSAU         FAIR      27  -1  30 NE8       30.28R WCI  19          
MOSINEE        FAIR      28   9  43 NE12      30.29R WCI  18          
MARSHFIELD     CLOUDY    31  15  52 E8        30.26R WCI  23          
STEVENS POINT  FAIR      26   2  35 NE10      30.29R WCI  16          
WAUPACA        FAIR      30   1  29 N9G16     30.29S WCI  22          
WAUTOMA        CLOUDY    30   7  37 NE8       30.28R WCI  22          
WISC RAPIDS    CLOUDY    31   8  38 E8        30.29R WCI  23          
CAMP DOUGLAS   NOT AVBL                                               
$$
 
WIZ011>013-019>022-031-037>040-048>050-250800-
NORTHEAST WISCONSIN
  
CITY           SKY/WX    TMP DP  RH WIND       PRES   REMARKS
ANTIGO         FAIR      21   8  55 NE8       30.29R WCI  12          
SHAWANO        FAIR      27   6  42 NE8       30.32R WCI  18          
OCONTO         FAIR      23  10  59 N9        30.33R WCI  13          
STURGEON BAY   FAIR      21  16  81 N15       30.31S WCI   8          
GREEN BAY      FAIR      26  12  55 NE12      30.30S WCI  16          
MANITOWOC      FAIR      25  15  66 N8        30.29R WCI  16          
APPLETON       FAIR      28   1  31 NE13G18   30.26R WCI  18          
CLINTONVILLE   FAIR      26   2  35 NE9       30.31R WCI  17          
OSHKOSH        FAIR      27  10  49 NE15G25   30.27R WCI  15          
$$
 
WIZ032>034-041-042-053>061-250800-
SOUTHWEST WISCONSIN
  
CITY           SKY/WX    TMP DP  RH WIND       PRES   REMARKS
LA CROSSE      MOCLDY    36  23  59 E3        30.27R                  
SPARTA         FAIR      31  24  75 CALM      30.27S                  
VIROQUA        FAIR      30  28  90 E6        30.24R WCI  24          
BOSCOBEL       FAIR      33  21  61 NE8       30.26R WCI  26          
PRAIRIE DU CHI FAIR      35  26  70 NE6       30.25R WCI  30          
PLATTEVILLE    FAIR      33  30  90 NE13      30.21R WCI  23          
$$

WIZ056-057-062-063-064-067-068-250800-
SOUTH CENTRAL WISCONSIN
  
CITY           SKY/WX    TMP DP  RH WIND       PRES   REMARKS
REEDSBURG      CLOUDY    30  22  71 NE7       30.26R WCI  23          
BARABOO/DELLS  MOCLDY    30  21  70 NE8       30.25R WCI  22          
LONE ROCK      FAIR      33  22  63 NE6       30.26R WCI  28          
MINERAL POINT  FAIR      32  27  80 NE12G20   30.21R WCI  23          
MADISON        FAIR      29  17  61 NE14      30.24R WCI  18          
MIDDLETON      FAIR      31  21  66 NE9G17    30.24R WCI  23          
WATERTOWN      MOCLDY    29  20  70 NE7       30.23R WCI  22          
MONROE         CLOUDY    32  25  76 MISG      30.19R                  
JANESVILLE     CLOUDY    32  28  86 NE10G21   30.21R WCI  24          
$$
 
WIZ051-052-058>065-066-070>072-250800-
SOUTHEAST WISCONSIN
  
CITY           SKY/WX    TMP DP  RH WIND       PRES   REMARKS
MILWAUKEE      FAIR      33  24  69 N18G31    30.23R WCI  22          
WAUKESHA       FAIR      28  21  74 NE14G20   30.22S WCI  17          
MILWAUKEE/TIMM FAIR      30  21  69 NE21      30.24R WCI  17          
RACINE         CLOUDY    33  26  75 N17G28    30.23R WCI  22          
KENOSHA        CLOUDY    34  28  79 NE20G26   30.20R WCI  23          
FOND DU LAC    FAIR      27  15  61 NE10      30.27R WCI  17          
SHEBOYGAN      FAIR      28  20  71 NE18      30.26R WCI  15          
WEST BEND      MOCLDY    28  21  74 NE12      30.24R WCI  18          
JUNEAU         NOT AVBL                                               
$$

LSZ147-162-250800-
LAKE SUPERIOR
  
STATION/POSITION TIME  TEMP    WIND        PRES    WAVE
                       AIR SEA DIR/SP/G            HT/PER
                 (UTC) (F)     (DEG/KT/KT) (MB)    (FT/S)
DEVILS ISLAND    0600   27      20/  2/  2 1030.2F
SAXON HARBOR     0630   17     200/  3/  4 1028.4S
$$
 
LMZ867-665-643>646-250800-
LAKE MICHIGAN
  
STATION/POSITION TIME  TEMP    WIND        PRES    WAVE
                       AIR SEA DIR/SP/G            HT/PER
                 (UTC) (F)     (DEG/KT/KT) (MB)    (FT/S)
CHAMBERS ISLAND  0640   21     340/  7/  9 1026.4R
NORTHPORT PIER   0640   24     340/  5/  8 1026.8S
KEWAUNEE LAKESHO 0630   24                 1024.9S
SHEBOYGAN LAKESH 0600   31      20/ 24/ 28 1025.2R
PORT WASHINGTON  0640   32      30/ 12/ 22 1025.4R
MILWAUKEE LAKESH 0630   33                   N/A
KENOSHA   LAKESH 0600   34      20/ 27/ 29 1022.0
$$

TC  - TEMPERATURE IN CELSIUS
VSB - VISIBILITY IN STATUTE MILES
WCI - WIND CHILL INDEX
HX  - HEAT INDEX